STARLINK-11257 [DTC] (61201 NORAD) Tracking and Keplerian Element Data

This shows tracking and keplerian element data for the satellite.

Feedback or suggestion? Click here.




ElementValue
Catalog61201
NameSTARLINK-11257 [DTC]
Epoch Orbit377
Epoch Day286.45919042
Epoch Year2024
RAAN187.5178
Inclination53.1557
Eccentricity0.0001014
Argument of Perigee92.4211
Mean Anonmoly267.6926
Mean Motion15.76734525
Decay Rate0.00026113
L11 61201U 24171B 24286.45919042 .00026113 00000+0 16301-3 0 9997
L22 61201 53.1557 187.5178 0001014 92.4211 267.6926 15.76734525 3770



Live tracking and technical data element details for STARLINK-11257 [DTC] (NORAD 61201). STARLINK-11257 [DTC] can be tracked NOW for your location showing map with azimuth and elevation plus other details from your city location.







IsCatalogInMostPopularTable: catalog: 61201, numindb: 24
Update: records affected: 1



GetName: 61201 STARLINK-11257 [DTC]

Hit Count: updated at: Wed, 04 Dec 2024 13:00:46 GMT